GW1838 Weather Reports


time (UTC)temp
C
wind
direction
speed
KPH
gust
KPH
rain 1hr
cm
rain 24hr
cm
rain mn
cm
humidity
%
barometer
mb
20260901092808 25 233 6.4 14.5 0.00 0.00 0.00 89 1015.2
20260901091806 25 244 4.8 11.3 0.00 0.00 0.00 89 1015.2
20260901090806 25 227 4.8 11.3 0.00 0.00 0.00 89 1015.1
20260901090306 25 237 4.8 14.5 0.00 0.00 0.00 89 1015.2
20260901085806 25 231 6.4 11.3 0.00 0.00 0.00 89 1015.3
20260901084806 25 234 6.4 14.5 0.00 0.00 0.00 89 1015.4
20260901083806 25 235 9.7 19.3 0.00 0.00 0.00 89 1015.4
20260901082806 25 238 8.0 14.5 0.00 0.03 0.00 89 1015.4
20260901082306 25 240 4.8 16.1 0.00 0.03 0.00 89 1015.3
20260901080806 24 235 9.7 19.3 0.00 0.03 0.00 89 1015.3
20260901074806 24 233 6.4 14.5 0.00 0.03 0.00 89 1015.5
20260901073306 24 219 4.8 14.5 0.00 0.03 0.00 89 1015.6
20260901072806 24 224 3.2 8.0 0.00 0.03 0.00 89 1015.6
20260901071306 24 228 3.2 9.7 0.00 0.03 0.00 89 1015.7
20260901070806 24 235 3.2 9.7 0.00 0.03 0.00 89 1015.8
20260901070306 24 235 4.8 9.7 0.00 0.03 0.00 89 1015.8
20260901065306 24 233 3.2 11.3 0.00 0.03 0.00 89 1015.8
20260901064806 24 212 4.8 9.7 0.00 0.03 0.00 88 1015.8
20260901064306 24 227 6.4 11.3 0.00 0.03 0.00 88 1015.9
20260901063305 24 213 3.2 9.7 0.00 0.03 0.00 88 1016.1
20260901062806 24 239 8.0 14.5 0.00 0.03 0.00 88 1016.1
20260901062310 24 218 8.0 12.9 0.00 0.03 0.00 88 1016.2
20260901061306 24 218 4.8 11.3 0.00 0.03 0.00 88 1016.2
20260901060805 24 217 3.2 9.7 0.00 0.03 0.00 88 1016.4
20260901060306 24 207 4.8 8.0 0.00 0.03 0.00 88 1016.4
20260901055806 24 202 3.2 8.0 0.00 0.03 0.00 87 1016.5
20260901054305 24 228 4.8 11.3 0.00 0.13 0.00 87 1016.7
20260901051306 24 214 4.8 11.3 0.00 0.41 0.00 87 1016.8
20260901050306 23 221 4.8 14.5 0.00 0.43 0.00 87 1016.7
20260901045806 23 212 4.8 16.1 0.00 0.43 0.00 87 1016.8
20260901045307 23 207 4.8 11.3 0.00 0.43 0.00 87 1016.8
20260901044306 23 215 4.8 9.7 0.00 0.61 0.00 87 1016.9
20260901043806 23 219 4.8 8.0 0.00 0.86 0.00 87 1017.0
20260901041805 23 207 3.2 8.0 0.00 1.37 0.00 86 1017.0
20260901041306 23 208 4.8 9.7 0.00 1.37 0.00 86 1017.0
20260901040838 23 205 4.8 9.7 0.00 1.37 0.00 86 1017.1
20260901033808 23 198 3.2 9.7 0.00 1.37 1.37 86 1017.0
20260901031305 23 200 4.8 9.7 0.00 1.37 1.37 86 1017.4
20260901030806 23 209 4.8 8.0 0.00 1.37 1.37 86 1017.3
20260901025308 23 199 4.8 11.3 0.00 1.37 1.37 86 1017.3
20260901023306 23 195 6.4 11.3 0.00 1.37 1.37 86 1017.5
20260901022306 23 203 4.8 11.3 0.00 1.37 1.37 85 1017.5
20260901021806 23 203 4.8 9.7 0.00 1.37 1.37 85 1017.7
20260901020306 23 196 4.8 8.0 0.00 1.37 1.37 85 1017.6
20260901015306 23 185 3.2 8.0 0.00 1.37 1.37 85 1017.5
20260901014805 23 205 3.2 8.0 0.00 1.37 1.37 85 1017.4
20260901013806 23 173 3.2 4.8 0.00 1.37 1.37 84 1017.5
20260901013306 23 197 4.8 8.0 0.00 1.37 1.37 84 1017.7
20260901012806 23 190 3.2 8.0 0.00 1.37 1.37 84 1017.7
20260901012306 23 187 3.2 4.8 0.00 1.37 1.37 84 1017.7
20260901011806 23 184 3.2 8.0 0.00 1.37 1.37 83 1017.7
20260901011305 23 204 3.2 8.0 0.00 1.37 1.37 83 1017.7
20260901010805 23 173 3.2 4.8 0.00 1.37 1.37 83 1017.7
20260901010306 23 169 4.8 9.7 0.00 1.37 1.37 83 1017.6
20260901005806 23 193 3.2 4.8 0.00 1.37 1.37 82 1017.4
20260901004806 23 196 3.2 8.0 0.00 1.37 1.37 82 1017.5
20260901001306 23 187 1.6 8.0 0.00 1.37 1.37 83 1017.3
20260901000306 23 182 1.6 4.8 0.00 1.37 1.37 82 1017.2
20260831235306 23 170 3.2 8.0 0.00 1.37 1.37 82 1017.3
20260831234306 23 183 3.2 4.8 0.00 1.37 1.37 82 1017.4
20260831233805 23 191 4.8 8.0 0.00 1.37 1.37 82 1017.4
20260831231307 23 184 1.6 4.8 0.00 1.37 1.37 82 1017.5
20260831225805 23 167 1.6 4.8 0.00 1.37 1.37 81 1017.5
20260831225306 23 174 1.6 4.8 0.00 1.37 1.37 81 1017.6
20260831224306 23 165 1.6 4.8 0.00 1.37 1.37 81 1017.7
20260831223306 23 163 1.6 4.8 0.00 1.37 1.37 81 1017.8
20260831222805 23 163 1.6 4.8 0.00 1.37 1.37 81 1017.8
20260831221806 23 150 1.6 4.8 0.00 1.37 1.37 81 1017.8
20260831220305 23 137 1.6 4.8 0.00 1.37 1.37 81 1017.9
20260831215805 23 126 1.6 4.8 0.00 1.37 1.37 81 1017.8
20260831214805 23 94 3.2 9.7 0.00 1.37 1.37 80 1017.7
20260831214306 23 99 6.4 9.7 0.00 1.37 1.37 80 1017.7
20260831213805 23 109 8.0 11.3 0.00 1.37 1.37 79 1017.7
20260831211807 23 109 9.7 14.5 0.00 1.37 1.37 80 1017.8
20260831211306 23 105 8.0 14.5 0.00 1.37 1.37 79 1017.9
20260831204305 23 91 8.0 14.5 0.00 1.37 1.37 79 1018.1
20260831200806 23 97 6.4 11.3 0.00 1.37 1.37 79 1018.5
20260831200305 23 100 4.8 11.3 0.00 1.37 1.37 79 1018.5
20260831195306 23 92 9.7 11.3 0.00 1.37 1.37 78 1018.5
20260831194306 24 101 8.0 11.3 0.00 1.37 1.37 77 1018.4
20260831191306 24 77 8.0 14.5 0.00 1.37 1.37 77 1018.7
20260831190806 24 92 6.4 14.5 0.00 1.37 1.37 78 1018.7
20260831190305 24 66 8.0 12.9 0.00 1.37 1.37 77 1018.7
20260831185306 25 56 8.0 14.5 0.00 1.37 1.37 77 1018.8
20260831184805 25 47 9.7 16.1 0.00 1.37 1.37 76 1018.7
20260831183805 25 44 8.0 16.1 0.00 1.37 1.37 76 1018.8
20260831183305 25 78 8.0 16.1 0.00 1.37 1.37 76 1018.8
20260831182806 25 76 8.0 14.5 0.00 1.37 1.37 75 1018.8
20260831182306 26 84 6.4 14.5 0.00 1.37 1.37 73 1018.9
20260831180305 25 85 8.0 14.5 0.00 1.37 1.37 75 1018.9
20260831175306 25 71 8.0 16.1 0.00 1.37 1.37 75 1018.9
20260831174805 25 101 8.0 16.1 0.00 1.37 1.37 75 1018.9
20260831172805 25 79 8.0 14.5 0.00 1.37 1.37 75 1018.8
20260831172306 25 51 8.0 12.9 0.00 1.37 1.37 76 1018.9
20260831171806 25 83 6.4 14.5 0.00 1.37 1.37 76 1018.9
20260831171305 25 77 9.7 19.3 0.00 1.37 1.37 76 1019.0
20260831170306 25 94 8.0 14.5 0.00 1.37 1.37 75 1018.9
20260831164806 25 61 4.8 11.3 0.00 1.37 1.37 76 1019.0
20260831163805 26 94 8.0 12.9 0.00 1.37 1.37 75 1019.1
20260831163305 26 102 6.4 14.5 0.00 1.37 1.37 76 1019.1
20260831162306 26 104 9.7 16.1 0.00 1.37 1.37 76 1019.1
20260831161805 25 62 9.7 16.1 0.00 1.37 1.37 77 1019.1
20260831161305 25 70 9.7 16.1 0.00 1.37 1.37 77 1019.2
20260831160305 25 55 9.7 19.3 0.00 1.37 1.37 78 1019.2
20260831155306 25 80 12.9 19.3 0.00 1.37 1.37 77 1019.1
20260831154805 25 61 9.7 16.1 0.00 1.37 1.37 77 1019.0
20260831152306 25 63 8.0 16.1 0.00 1.37 1.37 77 1019.1
20260831151805 25 53 8.0 14.5 0.00 1.37 1.37 77 1019.2
20260831151305 25 80 8.0 11.3 0.00 1.37 1.37 78 1019.2
20260831145805 25 98 8.0 16.1 0.00 1.37 1.37 80 1018.9
20260831144805 25 102 8.0 12.9 0.00 1.37 1.37 82 1018.9
20260831143305 24 98 9.7 14.5 0.00 1.37 1.37 83 1019.0
20260831142806 24 84 8.0 16.1 0.00 1.37 1.37 83 1019.1
20260831141805 24 100 6.4 11.3 0.00 1.37 1.37 84 1019.1
20260831135805 23 74 8.0 19.3 0.00 1.37 1.37 82 1019.2
20260831135306 23 67 9.7 19.3 0.00 1.37 1.37 82 1019.1
20260831134805 23 74 6.4 12.9 0.00 1.37 1.37 83 1019.2
20260831132805 23 82 8.0 12.9 0.00 1.37 1.37 82 1018.9
20260831131805 23 75 4.8 9.7 0.00 1.37 1.37 82 1018.8
20260831131305 23 60 8.0 11.3 0.00 1.37 1.37 81 1018.8
20260831130305 23 72 8.0 14.5 0.00 1.37 1.37 81 1018.7
20260831125306 23 61 6.4 16.1 0.00 1.37 1.37 81 1018.8
20260831124806 23 53 8.0 16.1 0.00 1.37 1.37 81 1018.9
20260831123305 23 68 8.0 19.3 0.00 1.37 1.37 82 1018.8
20260831122306 23 54 8.0 19.3 0.00 1.37 1.37 84 1018.9
20260831121805 23 48 8.0 16.1 0.00 1.37 1.37 85 1018.9
20260831115306 23 43 4.8 8.0 0.00 1.37 1.37 86 1018.5
20260831113805 22 52 4.8 9.7 0.00 1.37 1.37 87 1018.6
20260831112805 22 40 4.8 8.0 0.00 1.37 1.37 88 1018.7
20260831112307 22 48 4.8 8.0 0.00 1.37 1.37 88 1018.6
20260831111305 22 51 4.8 4.8 0.00 1.37 1.37 88 1018.6
20260831110310 22 46 3.2 9.7 0.00 1.37 1.37 88 1018.4
20260831105806 22 18 1.6 4.8 0.00 1.37 1.37 88 1018.3
20260831105306 22 39 6.4 9.7 0.00 1.37 1.37 88 1018.3
20260831104805 22 32 6.4 9.7 0.00 1.37 1.37 89 1018.3
20260831102306 22 4 8.0 14.5 0.00 1.37 1.37 90 1017.9
20260831094805 22 12 8.0 14.5 0.00 1.37 1.37 90 1017.4
20260831094305 22 25 8.0 16.1 0.00 1.37 1.37 90 1017.6
20260831093805 22 30 9.7 19.3 0.00 1.37 1.37 90 1017.6
20260831093305 22 22 12.9 19.3 0.00 1.37 1.37 90 1017.5